sat.trackr.live / text

‹ back to catalog

MERIDIAN 7

NORAD 40296 · 2014-069A

PAYLOAD ACTIVE UNKNOWN

§ Identity

Operator
Country
CIS
Launch date
2014-10-30
Launch site
PLMSC
Launch vehicle
Mass (kg)
RCS (m²)
21.23

External: N2YO · Heavens-Above · Gunter

§ Orbital elements

Epoch: 2026-09-12T22:05:43.652832Z

Period
717.83 min
Inclination
63.4473°
Eccentricity
0.6617733
Mean motion
2.00604958 rev/d
Perigee alt
2,604.0 km
Apogee alt
37,753.1 km
Semi-major
26,556.7 km
B*
0.0000e+0
RAAN
206.7939°
Arg perigee
269.9631°
Mean anomaly
20.1500°
Rev number
8,699

§ Raw data

MERIDIAN 71 40296U 14069A   26255.92064413  .00000229  00000+0  00000+0 0  99912 40296  63.4473 206.7939 6617733 269.9631  20.1500  2.00604958 86999

JSON: /api/v1/satellites/40296 · /tle

For live sub-satellite position, see the globe view (requires WebGL).

§ Visibility from observer

Set your observer location to see the next 7 days of passes ≥ 10°. The values pass through the URL so the page stays shareable.

No JS? Fill the form by hand. The geolocation button needs JavaScript.